Wilmington, NC

9:47 AM EDT on September 26, 2017 (GMT -0400)
Wilmington International

Weather History for KILM - August, 2013

Change the Weather History Date:

Wednesday, August 14, 2013

  Actual Average Record
Temperature  
Mean Temperature 75 °F 80 °F  
Max Temperature 83 °F 88 °F 101 °F (1925)
Min Temperature 67 °F 72 °F 61 °F (1983)
Degree Days  
Heating Degree Days 0 0  
Month to date heating degree days 0 0  
Since 1 June heating degree days 0 2  
Since 1 July heating degree days 0 0  
Cooling Degree Days 10 15  
Month to date cooling degree days 215 216  
Year to date cooling degree days 1288 1383  
Since 1 June cooling degree days 1062 1102  
Growing Degree Days 25 (Base 50)    
Moisture  
Dew Point 71 °F    
Average Humidity 82    
Maximum Humidity 94    
Minimum Humidity 69    
Precipitation  
Precipitation 0.52 in 0.23 in 2.96 in (1931)
Month to date precipitation 2.90 3.41  
Year to date precipitation 36.71 34.97  
Sea Level Pressure  
Sea Level Pressure 29.90 in    
Wind  
Wind Speed 9 mph (NW)    
Max Wind Speed 18 mph    
Max Gust Speed 24 mph    
Visibility 8 miles    
Events Rain , Thunderstorm    
T = Trace of Precipitation, MM = Missing Value Source: NWS Daily Summary

Daily Weather History Graph

Daily Weather History Graph

Search for Another Location

Airport or City:

Trip Planner

Search our weather history database for the weather conditions in past years. The results will help you decide how hot, cold, wet, or windy it might be!

Date:

Astronomy

Aug. 14, 2013 Rise Set
Actual Time 6:32 AM EDT 7:59 PM EDT
Civil Twilight 6:05 AM EDT 8:26 PM EDT
Nautical Twilight 5:33 AM EDT 8:57 PM EDT
Astronomical Twilight 5:00 AM EDT 9:31 PM EDT
Moon 2:06 PM EDT (8/14) No Moon Set
Length of Visible Light 14h 20m
Length of Day
13h 27m
First Quarter, 52% of the Moon is Illuminated
Aug 14
First Quarter
Aug 20
Full
Aug 28
Last Quarter
Sep 5
New
Sep 12
First Quarter

Hourly Weather History & Observations

Time (EDT) Temp. Heat Index Dew Point Humidity Pressure Visibility Wind Dir Wind Speed Gust Speed Precip Events Conditions
12:08 AM 82.4 °F 90.9 °F 77.0 °F 84% 29.84 in 10.0 mi SW 12.7 mph 20.7 mph N/A Thunderstorm Mostly Cloudy
12:27 AM 75.2 °F - 73.4 °F 94% 29.86 in 2.0 mi West 12.7 mph 23.0 mph 0.02 in Rain , Thunderstorm Heavy Thunderstorms and Rain
12:33 AM 75.2 °F - 73.4 °F 94% 29.87 in 1.5 mi SSW 9.2 mph 20.7 mph 0.16 in Rain Rain
12:37 AM 75.2 °F - 73.4 °F 94% 29.87 in 4.0 mi West 4.6 mph 17.3 mph 0.17 in Rain Light Rain
12:41 AM 75.2 °F - 73.4 °F 94% 29.86 in 7.0 mi WNW 4.6 mph - 0.17 in Rain , Thunderstorm Light Rain
12:50 AM 75.2 °F - 73.4 °F 94% 29.86 in 1.8 mi WNW 13.8 mph 17.3 mph 0.20 in Rain , Thunderstorm Heavy Rain
12:53 AM 75.0 °F - 73.0 °F 94% 29.86 in 1.5 mi WNW 17.3 mph 23.0 mph 0.33 in Rain , Thunderstorm Heavy Rain
12:57 AM 75.2 °F - 73.4 °F 94% 29.85 in 1.2 mi WNW 16.1 mph 24.2 mph 0.04 in Rain , Thunderstorm Heavy Thunderstorms and Rain
1:00 AM 73.4 °F - 71.6 °F 94% 29.85 in 1.8 mi West 13.8 mph 24.2 mph 0.08 in Rain , Thunderstorm Heavy Thunderstorms and Rain
1:03 AM 73.4 °F - 73.4 °F 100% 29.85 in 2.5 mi West 11.5 mph 24.2 mph 0.09 in Rain , Thunderstorm Thunderstorms and Rain
1:13 AM 75.2 °F - 73.4 °F 94% 29.86 in 1.2 mi West 13.8 mph 18.4 mph 0.21 in Rain , Thunderstorm Heavy Thunderstorms and Rain
1:15 AM 73.4 °F - 73.4 °F 100% 29.86 in 1.5 mi WNW 12.7 mph - 0.29 in Rain , Thunderstorm Heavy Rain
1:23 AM 73.4 °F - 73.4 °F 100% 29.86 in 2.0 mi WNW 12.7 mph - 0.37 in Rain , Thunderstorm Heavy Thunderstorms and Rain
1:26 AM 73.4 °F - 73.4 °F 100% 29.86 in 1.8 mi NW 12.7 mph - 0.40 in Rain , Thunderstorm Heavy Thunderstorms and Rain
1:36 AM 73.4 °F - 73.4 °F 100% 29.85 in 3.0 mi NNW 12.7 mph - 0.50 in Rain , Thunderstorm Light Rain
1:48 AM 75.2 °F - 73.4 °F 94% 29.84 in 5.0 mi NNW 9.2 mph - 0.57 in Rain Light Rain
1:53 AM 75.0 °F - 73.0 °F 94% 29.84 in 10.0 mi NNW 5.8 mph - 0.57 in Rain Light Rain
2:06 AM 75.2 °F - 73.4 °F 94% 29.84 in 10.0 mi NW 4.6 mph - 0.00 in Thunderstorm Overcast
2:34 AM 75.2 °F - 73.4 °F 94% 29.83 in 10.0 mi Calm Calm - 0.00 in Rain Light Rain
2:53 AM 75.9 °F - 73.9 °F 94% 29.83 in 10.0 mi SW 3.5 mph - 0.00 in Rain Light Rain
3:03 AM 75.2 °F - 73.4 °F 94% 29.82 in 9.0 mi SW 3.5 mph - 0.00 in Rain Light Rain
3:14 AM 75.2 °F - 73.4 °F 94% 29.82 in 10.0 mi SW 4.6 mph - 0.00 in Thunderstorm Mostly Cloudy
3:29 AM 75.2 °F - 73.4 °F 94% 29.81 in 10.0 mi WSW 6.9 mph - 0.00 in   Scattered Clouds
3:53 AM 77.0 °F - 75.0 °F 94% 29.82 in 10.0 mi WSW 4.6 mph - 0.00 in   Partly Cloudy
4:53 AM 77.0 °F - 75.0 °F 94% 29.83 in 10.0 mi SW 4.6 mph - N/A   Clear
5:00 AM 77.0 °F - 75.2 °F 94% 29.83 in 9.0 mi SW 4.6 mph - N/A   Scattered Clouds
5:09 AM 77.0 °F - 75.2 °F 94% 29.83 in 9.0 mi West 4.6 mph - N/A   Mostly Cloudy
5:53 AM 77.0 °F - 75.9 °F 96% 29.85 in 8.0 mi West 9.2 mph - N/A   Overcast
6:09 AM 77.0 °F - 75.2 °F 94% 29.85 in 6.0 mi West 6.9 mph - N/A   Overcast
6:39 AM 75.2 °F - 75.2 °F 100% 29.87 in 7.0 mi West 6.9 mph - N/A   Scattered Clouds
6:53 AM 77.0 °F - 75.0 °F 94% 29.87 in 6.0 mi West 4.6 mph - N/A   Scattered Clouds
7:53 AM 77.0 °F - 75.0 °F 94% 29.89 in 9.0 mi West 8.1 mph - N/A   Mostly Cloudy
8:53 AM 75.9 °F - 73.0 °F 91% 29.90 in 10.0 mi NW 6.9 mph - N/A   Mostly Cloudy
9:53 AM 77.0 °F - 73.0 °F 88% 29.92 in 10.0 mi North 5.8 mph - N/A   Partly Cloudy
10:09 AM 77.0 °F - 73.4 °F 89% 29.92 in 10.0 mi North 10.4 mph - N/A   Mostly Cloudy
10:53 AM 78.1 °F - 73.0 °F 84% 29.94 in 10.0 mi North 6.9 mph - N/A   Mostly Cloudy
11:36 AM 80.6 °F 85.4 °F 73.4 °F 79% 29.94 in 10.0 mi North 9.2 mph - N/A   Mostly Cloudy
11:53 AM 80.1 °F 83.8 °F 72.0 °F 76% 29.94 in 10.0 mi NNE 9.2 mph - N/A   Mostly Cloudy
12:41 PM 80.6 °F 84.6 °F 71.6 °F 74% 29.94 in 10.0 mi NE 9.2 mph - N/A   Mostly Cloudy
12:53 PM 82.0 °F 86.3 °F 71.1 °F 69% 29.94 in 10.0 mi NNE 9.2 mph - N/A   Mostly Cloudy
1:53 PM 82.0 °F 87.4 °F 73.0 °F 74% 29.94 in 10.0 mi NE 9.2 mph - N/A   Mostly Cloudy
2:10 PM 80.6 °F 84.6 °F 71.6 °F 74% 29.94 in 10.0 mi Calm Calm - N/A   Overcast
2:53 PM 77.0 °F - 73.0 °F 88% 29.94 in 8.0 mi ENE 8.1 mph - 0.00 in Rain Light Rain
3:53 PM 75.0 °F - 71.1 °F 87% 29.95 in 8.0 mi NNE 12.7 mph - 0.02 in Rain Light Rain
4:53 PM 73.9 °F - 68.0 °F 82% 29.95 in 10.0 mi NNE 17.3 mph - 0.00 in   Overcast
5:53 PM 73.0 °F - 66.0 °F 79% 29.97 in 10.0 mi NNE 11.5 mph - N/A   Overcast
6:10 PM 73.4 °F - 66.2 °F 78% 29.96 in 10.0 mi NNE 13.8 mph - N/A   Scattered Clouds
6:44 PM 71.6 °F - 62.6 °F 73% 29.98 in 10.0 mi NNE 13.8 mph - N/A   Mostly Cloudy
6:53 PM 71.1 °F - 62.1 °F 73% 29.99 in 10.0 mi NNE 15.0 mph - N/A   Overcast
7:25 PM 71.6 °F - 62.6 °F 73% 29.99 in 10.0 mi NNE 11.5 mph - N/A   Overcast
7:53 PM 70.0 °F - 63.0 °F 78% 29.99 in 10.0 mi NE 11.5 mph - N/A   Mostly Cloudy
8:15 PM 69.8 °F - 64.4 °F 83% 30.00 in 10.0 mi NNE 9.2 mph - 0.00 in   Mostly Cloudy
8:53 PM 69.1 °F - 64.0 °F 84% 30.02 in 10.0 mi NNE 11.5 mph - 0.00 in Rain Light Rain
9:53 PM 69.1 °F - 62.1 °F 78% 30.05 in 10.0 mi NE 8.1 mph - 0.00 in Rain Light Rain
10:07 PM 68.0 °F - 62.6 °F 83% 30.05 in 10.0 mi NE 9.2 mph - 0.00 in Rain Light Rain
10:53 PM 69.1 °F - 63.0 °F 81% 30.05 in 10.0 mi NNE 9.2 mph - 0.00 in   Overcast
11:53 PM 68.0 °F - 62.1 °F 81% 30.04 in 10.0 mi NE 10.4 mph - 0.00 in Rain Light Rain